DW9498 Weather Reports


Display with metric or nautical units.
time (UTC)temp
F
wind
direction
speed
MPH
gust
MPH
rain 1hr
in
rain 24hr
in
rain mn
in
humidity
%
barometer
mb
20260906035326 84 325 0.0 0.0 0.00 0.00 0.00 73 1014.3
20260906034330 84 325 0.0 0.0 0.00 0.00 0.00 72 1014.2
20260906033339 84 325 0.0 0.0 0.00 0.00 0.00 72 1014.2
20260906032325 84 325 0.0 0.0 0.00 0.00 0.00 73 1014.1
20260906031349 84 315 0.0 0.0 0.00 0.00 0.00 73 1014.0
20260906030338 85 315 0.0 0.0 0.00 0.00 0.00 73 1013.9
20260906025335 85 345 0.0 0.0 0.00 0.00 0.00 72 1013.5
20260906024337 85 357 0.0 2.0 0.00 0.00 0.00 72 1013.4
20260906023344 86 329 0.0 0.0 0.00 0.00 0.00 71 1013.2
20260906022332 86 329 0.0 0.0 0.00 0.00 0.00 71 1013.3
20260906021335 86 330 0.0 0.0 0.00 0.00 0.00 71 1013.1
20260906020342 86 313 0.0 0.0 0.00 0.00 0.00 71 1012.9
20260906015328 86 312 0.0 0.0 0.00 0.00 0.00 71 1012.6
20260906014350 86 312 0.0 0.0 0.00 0.00 0.00 70 1012.5
20260906013332 87 312 0.0 0.0 0.00 0.00 0.00 70 1012.4
20260906012327 87 336 0.0 0.0 0.00 0.00 0.00 69 1012.4
20260906011337 88 336 0.0 0.0 0.00 0.00 0.00 68 1012.3
20260906010349 88 341 0.0 0.0 0.00 0.00 0.00 67 1012.2
20260906005325 89 277 0.0 0.0 0.00 0.00 0.00 67 1012.1
20260906004333 90 275 0.0 0.0 0.00 0.00 0.00 66 1012.2
20260906003407 90 304 0.0 0.0 0.00 0.00 0.00 65 1012.1
20260906002333 91 273 0.0 1.0 0.00 0.00 0.00 63 1011.9
20260906001339 92 347 0.0 2.0 0.00 0.00 0.00 62 1011.9
20260906000334 93 239 0.0 2.0 0.00 0.00 0.00 61 1011.9
20260905235349 94 270 1.0 2.0 0.00 0.00 0.00 59 1012.0
20260905234346 95 235 0.0 1.0 0.00 0.00 0.00 58 1012.0
20260905233330 95 292 0.0 3.0 0.00 0.00 0.00 58 1011.9
20260905232337 95 263 0.0 0.0 0.00 0.00 0.00 57 1011.9
20260905231337 96 262 0.0 2.0 0.00 0.00 0.00 56 1011.9
20260905230347 97 243 0.0 3.0 0.00 0.00 0.00 56 1011.9
20260905225351 97 225 0.0 2.0 0.00 0.00 0.00 56 1011.9
20260905224336 96 152 0.0 3.0 0.00 0.00 0.00 56 1011.8
20260905223347 96 315 1.0 4.0 0.00 0.00 0.00 55 1011.6
20260905222333 96 202 1.0 5.0 0.00 0.00 0.00 55 1011.6
20260905221337 96 350 1.0 4.0 0.00 0.00 0.00 56 1011.5
20260905220348 95 342 1.0 5.0 0.00 0.00 0.00 55 1011.5
20260905215355 96 221 2.0 4.0 0.00 0.00 0.00 54 1011.6
20260905214338 95 249 1.0 5.0 0.00 0.00 0.00 55 1011.8
20260905213329 94 282 0.0 4.0 0.00 0.00 0.00 56 1011.9
20260905212344 95 328 2.0 3.0 0.00 0.00 0.00 53 1012.0
20260905211358 95 221 0.0 3.0 0.00 0.00 0.00 55 1012.2
20260905210410 94 146 1.0 3.0 0.00 0.00 0.00 54 1012.5
20260905205351 94 211 1.0 6.0 0.00 0.00 0.00 56 1012.5
20260905204359 94 356 1.0 4.0 0.00 0.00 0.00 55 1012.8
20260905203348 94 314 1.0 3.0 0.00 0.00 0.00 55 1013.0
20260905202329 93 21 0.0 4.0 0.00 0.00 0.00 56 1013.2
20260905201403 93 12 1.0 3.0 0.00 0.00 0.00 53 1013.5
20260905200333 93 352 1.0 5.0 0.00 0.00 0.00 53 1014.0
20260905195328 93 289 2.0 6.0 0.00 0.00 0.00 53 1014.1
20260905194333 92 210 1.0 3.0 0.00 0.00 0.00 57 1014.1
20260905193324 92 356 2.0 6.0 0.00 0.00 0.00 57 1014.2
20260905192334 92 346 1.0 4.0 0.00 0.00 0.00 58 1014.2
20260905191340 92 355 2.0 5.0 0.00 0.00 0.00 59 1014.4
20260905190329 90 359 1.0 7.0 0.00 0.00 0.00 61 1014.6
20260905185325 90 17 3.0 8.0 0.00 0.00 0.00 60 1014.9
20260905184349 90 16 1.0 5.0 0.00 0.00 0.00 61 1015.2
20260905183338 90 354 2.0 7.0 0.00 0.00 0.00 62 1015.3
20260905182328 90 10 4.0 8.0 0.00 0.00 0.00 62 1015.5
20260905181343 89 16 2.0 7.0 0.00 0.00 0.00 63 1015.4
20260905180332 89 31 4.0 6.0 0.00 0.00 0.00 65 1015.4
20260905175324 88 20 3.0 8.0 0.00 0.00 0.00 64 1015.2
20260905174347 89 17 5.0 12.0 0.00 0.00 0.00 64 1015.3
20260905173325 89 10 1.0 8.0 0.00 0.00 0.00 64 1015.3
20260905172333 88 339 3.0 6.0 0.00 0.00 0.00 64 1015.4
20260905171338 89 27 4.0 8.0 0.00 0.00 0.00 63 1015.4
20260905170408 89 330 3.0 10.0 0.00 0.00 0.00 63 1015.3
20260905165332 89 356 3.0 9.0 0.00 0.00 0.00 62 1015.3
20260905164340 90 25 4.0 9.0 0.00 0.00 0.00 62 1015.5
20260905163349 89 340 3.0 8.0 0.00 0.00 0.00 61 1015.5
20260905162324 90 344 1.0 6.0 0.00 0.00 0.00 61 1015.3
20260905161403 89 341 0.0 0.0 0.00 0.00 0.00 62 1015.2
20260905160348 88 336 0.0 0.0 0.00 0.00 0.00 64 1015.1
20260905155335 88 327 0.0 2.0 0.00 0.00 0.00 66 1014.9
20260905154342 87 343 0.0 0.0 0.00 0.00 0.00 67 1014.9
20260905153327 86 239 0.0 0.0 0.00 0.00 0.00 67 1014.9
20260905152338 85 237 0.0 0.0 0.00 0.00 0.00 69 1014.9
20260905151334 85 237 0.0 0.0 0.00 0.00 0.00 69 1014.7
20260905150323 84 237 0.0 0.0 0.00 0.00 0.00 68 1014.7
20260905145336 84 237 0.0 0.0 0.00 0.00 0.00 68 1014.7
20260905144337 84 237 0.0 0.0 0.00 0.00 0.00 69 1014.3
20260905143326 83 237 0.0 0.0 0.00 0.00 0.00 69 1014.1
20260905142335 83 234 0.0 0.0 0.00 0.00 0.00 72 1014.0
20260905141405 82 267 0.0 0.0 0.00 0.00 0.00 73 1013.8
20260905140329 81 239 0.0 2.0 0.00 0.00 0.00 73 1013.5
20260905135336 80 257 0.0 0.0 0.00 0.00 0.00 75 1013.8
20260905134343 79 234 0.0 0.0 0.00 0.00 0.00 75 1014.0
20260905133334 78 234 0.0 0.0 0.00 0.00 0.00 77 1014.0
20260905132324 77 236 0.0 0.0 0.00 0.00 0.00 78 1013.6
20260905131329 76 235 0.0 0.0 0.00 0.00 0.00 80 1013.4
20260905130359 76 235 0.0 0.0 0.00 0.00 0.00 81 1013.4
20260905125330 75 235 0.0 0.0 0.00 0.00 0.00 82 1013.3
20260905124359 75 235 0.0 0.0 0.00 0.00 0.00 82 1013.2
20260905123327 75 235 0.0 0.0 0.00 0.00 0.00 82 1013.0
20260905122334 75 235 0.0 0.0 0.00 0.00 0.00 81 1012.8
20260905121339 75 235 0.0 0.0 0.00 0.00 0.00 81 1012.7
20260905120330 74 235 0.0 0.0 0.00 0.00 0.00 82 1012.7
20260905115326 74 235 0.0 0.0 0.00 0.00 0.00 82 1012.6
20260905114328 74 235 0.0 0.0 0.00 0.00 0.00 83 1012.7
20260905113336 74 235 0.0 0.0 0.00 0.00 0.00 83 1012.7
20260905112332 74 235 0.0 0.0 0.00 0.00 0.00 82 1012.6
20260905111405 74 235 0.0 0.0 0.00 0.00 0.00 81 1012.4
20260905110355 75 235 0.0 0.0 0.00 0.00 0.00 81 1012.4
20260905105327 75 235 0.0 0.0 0.00 0.00 0.00 81 1012.5
20260905104402 75 235 0.0 0.0 0.00 0.00 0.00 80 1012.4
20260905103330 75 235 0.0 0.0 0.00 0.00 0.00 80 1012.3
20260905102341 75 235 0.0 0.0 0.00 0.00 0.00 79 1012.2
20260905101325 76 235 0.0 0.0 0.00 0.00 0.00 79 1012.1
20260905100354 76 235 0.0 0.0 0.00 0.00 0.00 79 1012.1
20260905095326 76 235 0.0 0.0 0.00 0.00 0.00 79 1012.0
20260905094335 76 235 0.0 0.0 0.00 0.00 0.00 78 1011.9
20260905093343 76 235 0.0 0.0 0.00 0.00 0.00 78 1011.8
20260905092327 76 235 0.0 0.0 0.00 0.00 0.00 78 1011.8
20260905091335 76 235 0.0 0.0 0.00 0.00 0.00 78 1011.8
20260905090345 76 235 0.0 0.0 0.00 0.00 0.00 79 1012.0
20260905085329 76 235 0.0 0.0 0.00 0.00 0.00 80 1012.0
20260905084347 76 235 0.0 0.0 0.00 0.00 0.00 81 1012.1
20260905083335 76 235 0.0 0.0 0.00 0.00 0.00 81 1012.2
20260905082350 76 235 0.0 0.0 0.00 0.00 0.00 81 1012.2
20260905081345 76 235 0.0 0.0 0.00 0.00 0.00 81 1012.3
20260905080350 76 235 0.0 0.0 0.00 0.00 0.00 81 1012.4
20260905075342 76 235 0.0 0.0 0.00 0.00 0.00 80 1012.5
20260905074342 77 235 0.0 0.0 0.00 0.00 0.00 80 1012.6
20260905073332 77 235 0.0 0.0 0.00 0.00 0.00 79 1012.6
20260905072324 77 235 0.0 0.0 0.00 0.00 0.00 79 1012.7
20260905071355 78 235 0.0 0.0 0.00 0.00 0.00 78 1012.7
20260905070339 78 235 0.0 0.0 0.00 0.00 0.00 77 1012.7
20260905065328 79 235 0.0 0.0 0.00 0.00 0.00 77 1012.8
20260905064338 79 235 0.0 0.0 0.00 0.00 0.00 76 1012.9
20260905063343 80 235 0.0 0.0 0.00 0.00 0.00 75 1012.9
20260905062328 80 235 0.0 0.0 0.00 0.00 0.00 75 1012.8
20260905061337 80 235 0.0 0.0 0.00 0.00 0.00 75 1012.8
20260905060330 80 234 0.0 0.0 0.00 0.00 0.00 75 1012.8
20260905055324 80 242 0.0 0.0 0.00 0.00 0.00 75 1012.8
20260905054325 80 208 0.0 0.0 0.00 0.00 0.00 76 1012.8
20260905053351 80 208 0.0 0.0 0.00 0.00 0.00 76 1012.7
20260905052336 81 208 0.0 0.0 0.00 0.00 0.00 76 1012.7
20260905051335 81 208 0.0 0.0 0.00 0.00 0.00 75 1012.7
20260905050323 82 208 0.0 0.0 0.00 0.00 0.00 74 1012.7
20260905045333 82 208 0.0 0.0 0.00 0.00 0.00 74 1012.6
20260905044338 82 208 0.0 0.0 0.00 0.00 0.00 74 1012.5
20260905043347 82 208 0.0 0.0 0.00 0.00 0.00 74 1012.4
20260905042331 83 208 0.0 0.0 0.00 0.00 0.00 74 1012.3
20260905041339 83 208 0.0 0.0 0.00 0.00 0.00 74 1012.2
20260905040410 83 208 0.0 0.0 0.00 0.00 0.00 74 1012.2